This demonstration page uses our WeatherBlox Daily Observations layout. Learn more.

Left ArrowRight Arrow

Hourly Observations for October 1, 2020

Temp ( °F °C ) Dew Point ( °F °C ) Humidity (%) Winds ( mph kmh ) Pressure ( in mb ) Visibility ( mi km ) Precip ( " mm )
12:53 am 00:53 Clear 51 10.6 28 -2.2 41 41 NW 10 17 30.22 1023 10 16 0.00 0.00
1:53 am 01:53 Clear 47 8.3 28 -2.2 48 48 WNW 10 17 30.23 1024 10 16 0.00 0.00
2:53 am 02:53 Clear 44 6.7 28 -2.2 53 53 W 10 17 30.24 1024 10 16 0.00 0.00
3:53 am 03:53 Clear 45 7.2 28 -2.2 52 52 W 10 17 30.26 1025 10 16 0.00 0.00
4:53 am 04:53 Clear 44 6.7 28 -2.2 53 53 NW 9 15 30.29 1026 10 16 0.00 0.00
5:53 am 05:53 Clear 46 7.8 28 -2.2 50 50 NW 12 19 30.32 1027 10 16 0.00 0.00
6:53 am 06:53 Clear 43 6.1 28 -2.2 56 56 WNW 10 17 30.35 1028 10 16 0.00 0.00
7:53 am 07:53 Sunny 43 6.1 28 -2.2 56 56 NW 12 19 30.38 1029 10 16 0.00 0.00
8:53 am 08:53 Sunny 47 8.3 30 -1.1 52 52 NNW 17 28 30.40 1029 10 16 0.00 0.00
9:53 am 09:53 Sunny 50 10 31 -0.6 48 48 N 24 39 30.41 1030 10 16 0.00 0.00
10:53 am 10:53 Sunny 53 11.7 31 -0.6 43 43 NNW 21 33 30.42 1030 10 16 0.00 0.00
11:53 am 11:53 Sunny 56 13.3 31 -0.6 39 39 N 22 35 30.42 1030 10 16 0.00 0.00
12:53 pm 12:53 Sunny 58 14.4 31 -0.6 36 36 NNW 17 28 30.40 1029 10 16 0.00 0.00
1:53 pm 13:53 Sunny 59 15 30 -1.1 33 33 NNW 20 31 30.38 1029 10 16 0.00 0.00
2:53 pm 14:53 Sunny 60 15.6 30 -1.1 32 32 NNW 16 26 30.35 1028 10 16 0.00 0.00
3:53 pm 15:53 Sunny 61 16.1 30 -1.1 31 31 N 16 26 30.32 1027 10 16 0.00 0.00
4:53 pm 16:53 Sunny 61 16.1 29 -1.7 30 30 N 15 24 30.32 1027 10 16 0.00 0.00
5:53 pm 17:53 Sunny 59 15 30 -1.1 33 33 N 14 22 30.31 1026 10 16 0.00 0.00
6:53 pm 18:53 Sunny 56 13.3 31 -0.6 39 39 N 8 13 30.32 1027 10 16 0.00 0.00
7:53 pm 19:53 Clear 52 11.1 31 -0.6 45 45 N 5 7 30.33 1027 10 16 0.00 0.00
8:53 pm 20:53 Clear 48 8.9 31 -0.6 52 52 Calm 30.33 1027 10 16 0.00 0.00
9:53 pm 21:53 Clear 46 7.8 33 0.6 61 61 Calm 30.33 1027 10 16 0.00 0.00
10:53 pm 22:53 Clear 43 6.1 32 0 65 65 Calm 30.32 1027 10 16 0.00 0.00
11:53 pm 23:53 Clear 39 3.9 30 -1.1 70 70 Calm 30.32 1027 10 16 0.00 0.00

Powered by AerisWeather